Regional Weather Roundup
Issued by NWS

Home | Current Version | Previous Version | Graphics & Text | Print | Product List | Glossary On
Versions: 1 2 3 4 5 6 7 8 9 10 11 12 13 14 15 16 17 18 19 20 21 22 23 24 25 26 27 28 29 30 31 32 33 34 35 36 37 38 39 40 41 42 43 44 45 46 47 48 49 50
000
ASUS43 KTOP 151759
RWRKS

WEATHER ROUNDUP FOR KANSAS
NATIONAL WEATHER SERVICE GOODLAND KS
100 PM CDT TUE AUG 15 2017

NOTE:  "FAIR" INDICATES FEW OR NO CLOUDS BELOW 12,000 FEET WITH NO
SIGNIFICANT WEATHER AND/OR OBSTRUCTIONS TO VISIBILITY.

KSZ001>006-013>018-027>032-041>047-151900-
NORTHWEST KANSAS

CITY           SKY/WX    TMP DP  RH WIND       PRES   REMARKS
GOODLAND       CLOUDY    82  64  54 S15G22    29.86F
6HR MIN TEMP:  63; 6HR MAX TEMP:  82;

HAYS           MOSUNNY   88  68  51 SE20      29.82F
HILL CITY      SUNNY     92  64  39 S15G24    29.82F
6HR MIN TEMP:  70; 6HR MAX TEMP:  92;

RUSSELL        MOSUNNY   90  68  48 S18G25    29.82F
6HR MIN TEMP:  69; 6HR MAX TEMP:  90;

$$

KSZ061>065-074>080-084>089-151900-
SOUTHWEST KANSAS

CITY           SKY/WX    TMP DP  RH WIND       PRES   REMARKS
DODGE CITY     SUNNY     87  64  46 S18G24    29.85F
6HR MIN TEMP:  69; 6HR MAX TEMP:  88;

GARDEN CITY    SUNNY     82  65  56 S15       29.86F
6HR MIN TEMP:  66; 6HR MAX TEMP:  83;

GREAT BEND     SUNNY     87  71  58 S13       29.85F
LIBERAL        SUNNY     83  63  50 S6        29.86F
$$

KSZ066>073-081>083-090>101-151900-
SOUTHEAST KANSAS

CITY           SKY/WX    TMP DP  RH WIND       PRES   REMARKS
COFFEYVILLE    MOSUNNY   86  73  65 SE7       29.87F
6HR MIN TEMP:  72; 6HR MAX TEMP:  86;

HUTCHINSON     SUNNY     87  69  54 SE13      29.86F
6HR MIN TEMP:  69; 6HR MAX TEMP:  88;

MEDICINE LODGE   N/A     82  70  66 SE9G16    29.83F
NEWTON         SUNNY     84  71  65 SE13      29.88F
PARSONS        MOSUNNY   85  73  67 VRB6      29.88F
6HR MIN TEMP:  72; 6HR MAX TEMP:  85;

WICHITA INTL   MOSUNNY   86  73  65 S12       29.86F
6HR MIN TEMP:  72; 6HR MAX TEMP:  86;

WICHITA JABRA  MOSUNNY   84  72  67 SE12      29.87F
6HR MIN TEMP:  70; 6HR MAX TEMP:  85;

WINFIELD       MOSUNNY   83  73  72 SE13      29.88F
6HR MIN TEMP:  72; 6HR MAX TEMP:  84;

$$

KSZ007>012-019>026-033>040-048>060-102>105-151900-
NORTHEAST KANSAS

CITY           SKY/WX    TMP DP  RH WIND       PRES   REMARKS
CONCORDIA      MOSUNNY   89  69  51 SE14G21   29.84F
6HR MIN TEMP:  71; 6HR MAX TEMP:  90;

EMPORIA        SUNNY     81  71  71 SE12      29.89F
6HR MIN TEMP:  70; 6HR MAX TEMP:  81;

LAWRENCE       MOSUNNY   84  72  67 SE10      29.90F
6HR MIN TEMP:  66; 6HR MAX TEMP:  84;

OLATHE IND     MOSUNNY   81  71  71 SE7       29.91F
6HR MIN TEMP:  69; 6HR MAX TEMP:  83;

OLATHE EXE     PTSUNNY   81  72  74 SE8       29.91F
6HR MIN TEMP:  66; 6HR MAX TEMP:  82;

SALINA         PTSUNNY   93  65  39 SE18      29.84F HX  95
6HR MIN TEMP:  73; 6HR MAX TEMP:  94;

TOPEKA BILLARD MOSUNNY   85  72  65 SE7       29.89F
6HR MIN TEMP:  68; 6HR MAX TEMP:  85;

TOPEKA FORBES  SUNNY     85  72  65 SE9       29.90S
6HR MIN TEMP:  70; 6HR MAX TEMP:  85;

$$




USA.gov is the U.S. government's official web portal to all federal, state and local government web resources and services.